Regional Weather Roundup
Issued by NWS

Home | Current Version | Previous Version | Graphics & Text | Print | Product List | Glossary On
Versions: 1 2 3 4 5 6 7 8 9 10 11 12 13 14 15 16 17 18 19 20 21 22 23 24 25 26 27 28 29 30 31 32 33 34 35 36 37 38 39 40 41 42 43 44 45 46 47 48 49 50
000
ASUS43 KFSD 231510
RWRSD

WEATHER ROUNDUP FOR SOUTH DAKOTA
NATIONAL WEATHER SERVICE SIOUX FALLS SD
1000 AM CDT TUE SEP 23 2014

NOTE: "FAIR" INDICATES FEW OR NO CLOUDS BELOW 12,000 FEET WITH NO
SIGNIFICANT WEATHER AND/OR OBSTRUCTIONS TO VISIBILITY.


SDZ001>005-009-010-012>017-231600-
NORTHWEST AND NORTH CENTRAL SOUTH DAKOTA

CITY           SKY/WX    TMP DP  RH WIND       PRES   REMARKS
BUFFALO          N/A     66  56  70 S3        29.86R
FAITH            N/A     59  55  87 SE8       29.92R
MOBRIDGE       PTSUNNY   63  56  78 SE15      29.93R
$$

SDZ012>016-024>037-041>051-057-063-072>074-231600-
SOUTHWEST AND SOUTH CENTRAL SOUTH DAKOTA

CITY           SKY/WX    TMP DP  RH WIND       PRES   REMARKS
RAPID CTY ARPT PTSUNNY   64  57  78 CALM      29.94R
PIERRE         CLOUDY    61  55  81 SE16      29.92S
CUSTER         CLOUDY    59  46  62 W6        30.05R
ELLSWORTH AFB  CLOUDY    63  58  83 NE3       29.93S
PHILIP         PTSUNNY   59  53  80 E5        29.91R
PINE RIDGE     CLOUDY    63  52  67 W9        29.95R
WINNER         CLOUDY    63  56  78 S17G26    29.96R
$$

SDZ004>011-016>023-039-040-231600-
NORTHEAST SOUTH DAKOTA

CITY           SKY/WX    TMP DP  RH WIND       PRES   REMARKS
ABERDEEN       CLOUDY    60  56  86 SE13G20   30.03S
WATERTOWN      CLOUDY    58  52  80 S15       30.10R
SISSETON         N/A     57  52  83 SE10      30.07R
$$

SDZ017-020-022-023-036>040-048>070-231600-
SOUTHEAST SOUTH DAKOTA

CITY           SKY/WX    TMP DP  RH WIND       PRES   REMARKS
SIOUX FALLS    LGT RAIN  57  55  93 SE8       30.14F
HURON          RAIN      58  56  93 SE15G26   30.03S FOG
CHAMBERLAIN    CLOUDY    60  55  85 SE14      29.99R
MITCHELL       RAIN      58  57  97 SE16      30.06S FOG
YANKTON        CLOUDY    57  55  94 SE9       30.12S
$$

ABBREVIATIONS USED IN REMARKS
   TC - TEMPERATURE IN CELSIUS
  WCI - WIND CHILL INDEX
   HX - HEAT INDEX
  VSB - VISIBILITY



USA.gov is the U.S. government's official web portal to all federal, state and local government web resources and services.